星链-36318(STARLINK-36318)

导读

STARLINK-36318(NORAD编号68048)是SpaceX星链(Starlink)低轨互联网星座中的一颗卫星,隶属于SpaceX公司全球卫星互联网组网项目。星链计划旨在打造覆盖全球的低轨卫星通信网络,填补偏远地区网络覆盖空白,提供高速低延迟互联网服务。 该卫星运行于近地轨道,是SpaceX已发射的上万颗星链卫星之一,采用Ku/Ka频段提供通信服务。当前SpaceX正推进星座升级,计划2026年将包括该星在内的数千颗星链卫星轨道从550公里降至480公里,以提升太空运行安全,减少碰撞风险和太空垃圾影响。

基本信息
目录编号:
68048
目录名称:
STARLINK-36318
国际标识:
2026-041J
轨道中心:
EARTH
卫星名称:
星链-36318
卫星全名:
星链-36318(STARLINK-36318)
卫星状态:
在轨 (已飞行103 天)
发射日期:
2026-03-02 UTC
国别 :
美国 (US)
星等 :
--
轨道信息
数据来源 国际轨道数据 AOE轨道数据
星历时间 2026-06-13T02:33:07+0800
10小时前
查看轨道信息
2026-06-12T07:00:00+0800
1天前
查看轨道信息
半长轴 6840.775km 6840.931km
偏心率 0.00013 0.0000032
轨道倾角 53.160° 53.163°
近地点辐角 74.477° 139.625°
升交点赤经 326.264° 330.070°
平近点角 285.637° 37.891°
近地点 461.748km 462.772km
远地点 463.528km 462.816km
周期 93.846分钟 93.850分钟
每日圈数 15.344222 15.343697
详细信息
固有亮度:
5
最大亮度:
2.5
卫星平台:
Starlink V1.0
覆盖范围:
全球
运营商:
太空探索技术公司
运营商所在国:
美国
制造商(研发单位):
太空探索技术公司
制造商所在国:
美国
使用方式:
暂无
卫星简介
Starlink 计划是 SpaceX 推出的全球卫星互联网项目,通过发射低轨道卫星,为全球尤其是偏远地区提供高速、低延迟的互联网服务。自 2019 年起,Starlink 已部署数千颗卫星,旨在缩小全球数字鸿沟,推动互联网普及。该项目还为军事、航空等行业提供通信支持,带来广泛经济效益。
2D轨道图
3D轨道图
轨道高度分析图
轨道倾角分析图
轨道综合分析图
查看轨道综合分析图